This is the latest recevied weather packets stored in our database for station/object K7LER. If no packets are shown the sender has not sent any weather packets the latest 10 day(s).
| Time | Temp. | Humidity | Pressure | Rain* | Wind** | Luminosity | Snow |
|---|---|---|---|---|---|---|---|
| 1778028936 | 17.78° C | 69% | 1014.9 hPa | 0 mm | - | 297 W/m² | - |
| 1778028634 | 17.78° C | 68% | 1014.9 hPa | 0 mm | - | 345 W/m² | - |
| 1778028351 | 17.78° C | 68% | 1015 hPa | 0 mm | - | 373 W/m² | - |
| 1778028034 | 17.78° C | 68% | 1015 hPa | 0 mm | - | 390 W/m² | - |
| 1778027733 | 17.78° C | 69% | 1015 hPa | 0 mm | - | 408 W/m² | - |
| 1778027442 | 17.78° C | 69% | 1015 hPa | 0 mm | - | 413 W/m² | - |
| 1778027137 | 17.78° C | 68% | 1015.1 hPa | 0 mm | - | 399 W/m² | - |
| 1778026833 | 17.78° C | 69% | 1015.1 hPa | 0 mm | - | 366 W/m² | - |
| 1778026541 | 17.78° C | 69% | 1015.1 hPa | 0 mm | - | 343 W/m² | - |
| 1778026235 | 17.78° C | 70% | 1015.2 hPa | 0 mm | - | 336 W/m² | - |
| 1778025936 | 17.78° C | 69% | 1015.3 hPa | 0 mm | - | 357 W/m² | - |
| 1778025650 | 17.78° C | 69% | 1015.3 hPa | 0 mm | - | 390 W/m² | - |
| 1778025334 | 17.78° C | 70% | 1015.2 hPa | 0 mm | - | 425 W/m² | - |
| 1778025033 | 17.78° C | 69% | 1015.4 hPa | 0 mm | - | 454 W/m² | - |
| 1778024757 | 17.22° C | 71% | 1015.3 hPa | 0 mm | - | 503 W/m² | - |
| 1778024433 | 17.22° C | 70% | 1015.4 hPa | 0 mm | - | 531 W/m² | - |
| 1778024135 | 17.22° C | 69% | 1015.5 hPa | 0 mm | - | 575 W/m² | - |
| 1778023843 | 17.22° C | 71% | 1015.6 hPa | 0 mm | - | 591 W/m² | - |
| 1778023534 | 17.22° C | 72% | 1015.6 hPa | 0 mm | - | 612 W/m² | - |
| 1778023234 | 17.22° C | 70% | 1015.5 hPa | 0 mm | - | 635 W/m² | - |
| 1778022955 | 16.67° C | 72% | 1015.5 hPa | 0 mm | - | 687 W/m² | - |
| 1778022634 | 16.67° C | 73% | 1015.5 hPa | 0 mm | - | 536 W/m² | - |
| 1778022335 | 16.67° C | 73% | 1015.7 hPa | 0 mm | - | 548 W/m² | - |
| 1778022050 | 16.11° C | 74% | 1015.6 hPa | 0 mm | - | 390 W/m² | - |
| 1778021733 | 16.11° C | 75% | 1015.8 hPa | 0 mm | - | 397 W/m² | - |
* Rain latest hour (hover to see other rain measurements)
** Current wind speed in m/s (hover to see current wind gust speed)